Weather History for KSPW - July, 2013

Change the Weather History Date:

Friday, July 12, 2013

  Actual Average Record
Temperature  
Mean Temperature 78 °F -  
Max Temperature 91 °F 82 °F 93 °F (2015)
Min Temperature 66 °F 62 °F 48 °F (1975)
Cooling Degree Days 14    
Growing Degree Days 28 (Base 50)    
Moisture  
Dew Point 60 °F    
Average Humidity 54    
Maximum Humidity 73    
Minimum Humidity 35    
Precipitation  
Precipitation 0.00 in - - ()
Sea Level Pressure  
Sea Level Pressure 29.95 in    
Wind  
Wind Speed 15 mph (SSE)    
Max Wind Speed 24 mph    
Max Gust Speed 32 mph    
Visibility 10 miles    
Events      
Averages and records for this station are not official NWS values.
T = Trace of Precipitation, MM = Missing Value Source: NWS Daily Summary

Daily Weather History Graph

Daily Weather History Graph

Search for Another Location

Airport or City:

Trip Planner

Search our weather history database for the weather conditions in past years. The results will help you decide how hot, cold, wet, or windy it might be!

Date:

Astronomy

Jul. 12, 2013 Rise Set
Actual Time 5:52 AM CDT 9:00 PM CDT
Civil Twilight 5:17 AM CDT 9:34 PM CDT
Nautical Twilight 4:33 AM CDT 10:18 PM CDT
Astronomical Twilight 3:40 AM CDT 11:11 PM CDT
Moon 10:18 AM CDT (7/12) 11:01 PM CDT (7/12)
Length of Visible Light 16h 16m
Length of Day
15h 07m
Waxing Crescent, 17% of the Moon is Illuminated
Jul 12
Waxing Crescent
Jul 15
First Quarter
Jul 22
Full
Jul 29
Last Quarter
Aug 6
New

Hourly Weather History & Observations

Time (CDT) Temp. Heat Index Dew Point Humidity Pressure Visibility Wind Dir Wind Speed Gust Speed Precip Events Conditions
12:53 AM 71.1 °F - 57.0 °F 61% 30.00 in 10.0 mi South 11.5 mph - N/A   Clear
1:53 AM 70.0 °F - 57.9 °F 65% 30.00 in 10.0 mi SSE 15.0 mph - N/A   Clear
2:53 AM 69.1 °F - 57.9 °F 68% 29.99 in 10.0 mi SSE 11.5 mph - N/A   Clear
3:53 AM 68.0 °F - 57.9 °F 70% 29.99 in 10.0 mi South 11.5 mph - N/A   Clear
4:53 AM 66.9 °F - 57.0 °F 70% 29.99 in 10.0 mi SSE 10.4 mph - N/A   Clear
5:53 AM 66.0 °F - 57.0 °F 73% 29.99 in 10.0 mi SSE 10.4 mph - N/A   Clear
6:53 AM 66.9 °F - 57.0 °F 70% 29.99 in 10.0 mi SSE 12.7 mph - N/A   Clear
7:53 AM 71.1 °F - 59.0 °F 66% 29.99 in 10.0 mi South 11.5 mph 19.6 mph N/A   Clear
8:53 AM 73.9 °F - 60.1 °F 62% 29.99 in 10.0 mi South 19.6 mph - N/A   Clear
9:53 AM 79.0 °F - 61.0 °F 54% 29.98 in 10.0 mi South 17.3 mph 25.3 mph N/A   Clear
10:53 AM 82.9 °F 83.7 °F 62.1 °F 49% 29.97 in 10.0 mi South 20.7 mph 25.3 mph N/A   Clear
11:53 AM 84.9 °F 85.4 °F 62.1 °F 46% 29.96 in 10.0 mi South 20.7 mph 24.2 mph N/A   Clear
12:53 PM 89.1 °F 89.0 °F 61.0 °F 39% 29.94 in 10.0 mi South 19.6 mph 27.6 mph N/A   Clear
1:53 PM 90.0 °F 90.0 °F 61.0 °F 38% 29.93 in 10.0 mi South 19.6 mph 27.6 mph N/A   Clear
2:53 PM 91.9 °F 91.8 °F 61.0 °F 35% 29.91 in 10.0 mi South 20.7 mph 27.6 mph N/A   Clear
3:53 PM 91.0 °F 91.5 °F 62.1 °F 38% 29.92 in 10.0 mi South 24.2 mph 29.9 mph N/A   Clear
4:53 PM 91.0 °F 91.5 °F 62.1 °F 38% 29.91 in 10.0 mi SSE 18.4 mph 32.2 mph N/A   Clear
5:53 PM 90.0 °F 90.6 °F 63.0 °F 40% 29.90 in 10.0 mi SSE 23.0 mph 29.9 mph N/A   Clear
6:53 PM 87.1 °F 87.8 °F 63.0 °F 44% 29.88 in 10.0 mi SSE 23.0 mph 32.2 mph N/A   Clear
7:53 PM 84.9 °F 85.9 °F 63.0 °F 48% 29.90 in 10.0 mi SSE 20.7 mph 27.6 mph N/A   Clear
8:53 PM 82.0 °F 83.0 °F 62.1 °F 51% 29.91 in 10.0 mi SSE 17.3 mph 25.3 mph N/A   Clear
9:53 PM 80.1 °F 81.2 °F 62.1 °F 54% 29.91 in 10.0 mi SSE 13.8 mph - N/A   Partly Cloudy
10:53 PM 78.1 °F - 61.0 °F 56% 29.91 in 10.0 mi SSE 15.0 mph - N/A   Clear
11:53 PM 77.0 °F - 61.0 °F 58% 29.95 in 10.0 mi SSE 12.7 mph - N/A   Clear